Regional Weather Roundup
Issued by NWS

Home | Current Version | Previous Version | Graphics & Text | Print | Product List | Glossary Off
Versions: 1 2 3 4 5 6 7 8 9 10 11 12 13 14 15 16 17 18 19 20 21 22 23 24 25 26 27 28 29 30 31 32 33 34 35 36 37 38 39 40 41 42 43 44 45 46 47 48 49 50

000
ASUS43 KMPX 040210
RWRMN
WEATHER ROUNDUP FOR MINNESOTA
NATIONAL WEATHER SERVICE TWIN CITIES/CHANHASSEN MN
800 PM CST TUE MAR 03 2015


NOTE: "FAIR" INDICATES FEW OR NO CLOUDS BELOW 12,000 FEET WITH NO
SIGNIFICANT WEATHER AND/OR OBSTRUCTIONS TO VISIBILITY. N/A MEANS
CURRENT SKY AND/OR WEATHER CONDITIONS ARE NOT AVAILABLE.

MNZ060>063-068>070-040300-
   Twin Cities Metro

CITY           SKY/WX    TMP DP  RH WIND       PRES   REMARKS
TWIN CITIES    PTCLDY    13   3  64 W22G32    29.93R WCI  -6
ST PAUL        PTCLDY    14   4  64 NW23G30   29.93R WCI  -5
CRYSTAL        PTCLDY    13   3  64 W18G26    29.92R WCI  -4
BLAINE         PTCLDY    16   7  67 W20       29.91R WCI  -1
LAKEVILLE      CLEAR     10   3  72 NW22      29.91R WCI  -9
EDEN PRAIRIE   PTCLDY    12   2  64 NW17G25   29.93R WCI  -5
SOUTH ST PAUL  PTCLDY    15   4  61 W12G21    29.92R WCI   2
LAKE ELMO      FAIR      16   5  62 W14G25    29.90R WCI   1
$$
MNZ001>005-007-008-013>017-022>024-027-028-040300-
   Northwest Minnesota

CITY           SKY/WX    TMP DP  RH WIND       PRES   REMARKS
BEMIDJI        PTCLDY     0  -7  72 W21G26    29.88R WCI -22
HALLOCK        CLEAR      1  -9  60 NW17G25   29.95R WCI -19
ROSEAU         PTCLDY     1  -8  66 W9        29.88R WCI -14
WARROAD        CLEAR      0  -8  71 W12       29.86R WCI -18
THIEF RVR FALL PTCLDY     0  -8  71 W17G23    29.93R WCI -21
CROOKSTON      CLEAR      1  -6  71 NW13      30.00R WCI -16
FOSSTON        MOCLDY     0  -9  65 W16G23    29.94R WCI -21
DETROIT LAKES  CLEAR      5  -4  66 NW22      29.95R WCI -16
MOORHEAD       CLEAR      5  -2  72 NW18G24   30.02R WCI -15
PARK RAPIDS    MOCLDY     4  -4  69 NW17      29.88R WCI -16
MAHNOMEN       FAIR       2  -6  67 NW17G25   29.94R WCI -18
$$
MNZ006-009>011-018-025>026-040300-
   North Central Minnesota

CITY           SKY/WX    TMP DP  RH WIND       PRES   REMARKS
BAUDETTE       CLOUDY     1  -5  75 W13       29.81R HAZE    WCI -17
FLAG ISLAND    PTCLDY     0  -9  65 W17       29.83R WCI -21
INTL FALLS     CLEAR      2 -10  57 W12       29.78R WCI -15
WASKISH        CLEAR      0  -6  78 W15G22    29.85R WCI -20
BIG FORK       FAIR       3  -6  66 W5        29.81R WCI  -6
LONGVILLE      CLEAR      3  -8  60 W10G20    29.87R WCI -12
GRAND RAPIDS   CLEAR      5  -6  61 NW15G23   29.81R WCI -13
CRANE LAKE     CLEAR      3 -11  51 W5G18     29.79R WCI  -6
ORR            CLEAR      3  -9  55 W10G21    29.75R WCI -12
COOK           MOCLDY     5  -4  66 W15G23    29.77R HAZE    WCI -13
WALKER         FAIR       1  -6  71 NW13      29.88R WCI -16
$$
MNZ012-019>021-037-040300-
   Northeast Minnesota

CITY           SKY/WX    TMP DP  RH WIND       PRES   REMARKS
DULUTH         CLOUDY    10  -1  61 NW15G23   29.75R WCI  -7
ELY            FAIR       7  -2  66 NW18G29   29.70R WCI -12
HIBBING        CLEAR      6  -6  57 W12G25    29.78R WCI  -9
EVELETH        CLEAR      9   0  66 W17G25    29.77R WCI -10
DULUTH HARBOR  PTCLDY    14   3  62 W20       29.83R WCI  -3
TWO HARBORS    PTCLDY    14   3  62 W9G22     29.73R WCI   2
SILVER BAY     FAIR      12   0  57 W9G20     29.70R WCI   0
GRAND MARAIS     N/A     13   0  56 W13G22    29.67R WCI  -2
G MARAIS ARPRT PTCLDY     5  -6  61 W20G29    29.57R WCI -15
$$
MNZ029>031-032-039>041-046>048-054>057-064-040300-
   West Central Minnesota

CITY           SKY/WX    TMP DP  RH WIND       PRES   REMARKS
FERGUS FALLS   CLEAR      3  -8  60 NW23G32   30.04R WCI -19
WHEATON        CLEAR      3  -4  72 W16G23    30.06R WCI -16
MORRIS         PTCLDY     5  -2  72 NW15      30.01R WCI -13
ALEXANDRIA     MOCLDY     5  -2  72 NW20G25   29.95R WCI -15
ELBOW LAKE     MOCLDY     5  -3  71 NW21G26   29.99R WCI -16
WADENA         PTCLDY     3  -6  66 W10G20    29.92R WCI -12
GLENWOOD       CLEAR      5  -2  72 W23G30    29.96R WCI -17
APPLETON       CLEAR      9   0  66 NW13      30.05R WCI  -7
BENSON         CLEAR      7   0  72 NW10      30.02R WCI  -8
ORTONVILLE     PTCLDY     7  -2  66 NW10      30.05R WCI  -8
MADISON        PTCLDY     9   0  66 NW6       30.06R WCI  -1
WILLMAR        FAIR      10   1  67 NW17G23   30.00R WCI  -7
$$
MNZ033>034-036-042>043-049>051-058-059-040300-
   Central Minnesota

CITY           SKY/WX    TMP DP  RH WIND       PRES   REMARKS
ST CLOUD       PTCLDY     9   0  67 NW17      29.94R WCI  -9
SAUK CENTRE    FAIR       6   0  75 W17G23    29.95R WCI -13
PAYNESVILLE    PTCLDY     5   1  83 SW12G17   29.97R WCI -11
AITKIN         CLEAR      9  -4  56 W10G21    29.86R WCI  -6
PINE RIVER     CLEAR      3  -6  66 W8        29.92R WCI -10
BRAINERD       PTCLDY     6  -4  63 NW10      29.90R WCI  -9
STAPLES        CLEAR      3  -6  66 W16G24    29.91R WCI -16
LITTLE FALLS   PTCLDY     9  -2  61 W10       29.94R WCI  -6
LITCHFIELD     PTCLDY    10   3  72 W8G20     29.97R WCI  -1
BUFFALO        PTCLDY    11   1  65 W15G21    29.96R WCI  -5
MAPLE LAKE     CLEAR     11   2  67 W16G25    29.96R WCI  -6
$$
MNZ037-044-045-052-053-040300-
   East Central Minnesota

CITY           SKY/WX    TMP DP  RH WIND       PRES   REMARKS
PRINCETON      PTCLDY    10   1  67 W16G23    29.92R WCI  -7
MORA           PTCLDY    12   0  57 W17G30    29.90R WCI  -5
RUSH CITY      PTCLDY    12   2  64 W14G22    29.89R WCI  -3
MOOSE LAKE     PTCLDY    12   0  57 CALM      29.82R
HINCKLEY       FAIR      14   1  57 W14G21    29.86R WCI  -1
CLOQUET        FAIR      10  -2  56 W14       29.79R WCI  -5
MCGREGOR       PTCLDY    10   1  67 NW10      29.85R WCI  -3
$$
MNZ071>073-080-081-089-090-097-098-040300-
   Southwest Minnesota

CITY           SKY/WX    TMP DP  RH WIND       PRES   REMARKS
MONTEVIDEO     FAIR       9   5  85 N12       30.04S WCI  -6
GRANITE FALLS  CLEAR      9   1  72 W15       30.06R WCI  -8
CANBY          PTCLDY     7   0  74 W8        30.06R WCI  -6
MARSHALL       CLEAR      9   0  66 NW14      30.05R WCI  -8
REDWOOD FALLS  CLEAR     10   1  67 NW16      30.02R WCI  -7
OLIVIA         CLEAR      9   3  78 NW12G22   30.01R WCI  -6
PIPESTONE      CLEAR      9   1  72 NW13G21   30.01R WCI  -7
WINDOM         CLEAR     10   1  67 NW18      29.99R WCI  -8
WORTHINGTON    CLEAR      9   0  66 NW18      30.01R WCI -10
JACKSON        CLEAR     12   3  67 NW17G24   29.99R WCI  -5
TRACY          CLEAR     10   3  72 NW18      30.02R WCI  -8
SLAYTON        CLEAR      8   1  71 NW17      30.01R WCI -10
$$
MNZ065>067-074>077-082>085-091>093-040300-
   South Central Minnesota

CITY           SKY/WX    TMP DP  RH WIND       PRES   REMARKS
MANKATO        FAIR      10   1  67 NW24G31   29.97R WCI -10
NEW ULM        FAIR      10   3  72 NW21G26   29.99R WCI  -9
ST JAMES       CLEAR     12   3  67 W18G25    30.01R WCI  -5
FAIRMONT       CLEAR     12   1  62 W17G25    29.98R WCI  -5
GLENCOE        PTCLDY    11   5  76 W22G28    29.97R WCI  -8
FARIBAULT      CLOUDY    12   7  79 W16G23    29.95R WCI  -4
OWATONNA       CLOUDY    12   7  79 W21G26    29.95R HAZE    WCI  -6
WASECA         CLOUDY    12   7  79 NW28G35   29.97R HAZE    WCI  -9
ALBERT LEA     MOCLDY    12   7  79 NW18G25   29.95R WCI  -5
$$
MNZ078>079-086>088-094>096-040300-
   Southeast Minnesota

CITY           SKY/WX    TMP DP  RH WIND       PRES   REMARKS
ROCHESTER      MOCLDY    12   7  80 NW21      29.89R WCI  -7
RED WING       CLOUDY    18   7  62 W15G22    29.90R WCI   3
STANTON        CLEAR     14   6  69 W22       29.93R WCI  -4
DODGE CENTER   CLOUDY    12   9  85 NW18G25   29.90R FOG     WCI  -5
WINONA         CLEAR     21  12  68 W17       29.89R WCI   7
AUSTIN         CLOUDY    12   7  79 NW22G31   29.93R WCI  -7
PRESTON        CLEAR     13   8  80 NW22      29.89R WCI  -6
$$
ABBREVIATIONS USED IN REMARKS
   TC - TEMPERATURES IN CELSIUS
  WCI - WIND CHILL INDEX
   HX - HEAT INDEX
  VSB - VISIBILITY
$$


USA.gov is the U.S. government's official web portal to all federal, state and local government web resources and services.